managerzone.com alexa rank chart, managerzone.com alexa rank daily changes

managerzone.com alexa rank chart, managerzone.com alexa rank daily changes

managerzone.com
Actual rank:
54 415

RANK HISTORY

Date Rank Diff
2017/11/23 54 415 +963
2017/11/22 53 452 +16
2017/11/21 53 436 +152
2017/11/20 53 284 -165
2017/11/19 53 449 +649
2017/11/18 52 800 +294
2017/11/17 52 506 -178
2017/11/16 52 684 +46
2017/11/15 52 638 +384
2017/11/14 52 254 -556
2017/11/13 52 810 +929
2017/11/12 51 881 +315
2017/11/11 51 566 +272
2017/11/10 51 294 -229
2017/11/09 51 523 +279
2017/11/08 51 244 -431
2017/11/07 51 675 -361
2017/11/06 52 036 -1 030
2017/11/05 53 066 -349
2017/11/04 53 415 -167
2017/11/03 53 582 -1 252
2017/11/02 54 834 -422
2017/11/01 55 256 -97
2017/10/31 55 353 -1 281
2017/10/30 56 634 -705
2017/10/29 57 339 -557
2017/10/28 57 896 -410
2017/10/27 58 306 -652
2017/10/26 58 958 +615
2017/10/25 58 343 -584
2017/10/24 58 927 -1 284
2017/10/23 60 211 -1 160
2017/10/22 61 371 +18
2017/10/21 61 353 -1 185
2017/10/20 62 538 -835
2017/10/19 63 373 -894
2017/10/18 64 267 -485
2017/10/17 64 752 -233
2017/10/16 64 985 -1 624
2017/10/14 66 609 -273
2017/10/13 66 882 -1 385
2017/10/12 68 267 +1 905
2017/10/11 66 362 +2 122
2017/10/10 64 240 +1 457
2017/10/09 62 783 +541
2017/10/08 62 242 +724
2017/10/07 61 518 +940
2017/10/06 60 578 +2 032
2017/10/05 58 546 +2 200
2017/10/04 56 346 +1 329
2017/10/03 55 017 +536
2017/10/02 54 481 +908
2017/10/01 53 573 +1 989
2017/09/30 51 584 +718
2017/09/29 50 866 +1 659
2017/09/28 49 207 +1 566
2017/09/27 47 641 +884
2017/09/26 46 757 +10
2017/09/25 46 747 +715
2017/09/24 46 032

WIDGET FOR YOUR SITE

DOMAINS WITH THE NEAREST RANK

Domain Rank
newswitch.jp 54 410
likeshuo.com 54 411
cycu.edu.tw 54 412
phpdozeroaoprofissional.com.br 54 413
goldsexvideos.com 54 414
managerzone.com 54 415
hyser.com.ua 54 416
dianpingoa.com 54 417
futbik.net 54 418
changhong.com 54 419
opendemocracy.net 54 420

DOMAINS WITH THE NEAREST RANK BY TLD .com

Domain Rank
withgay.com 54 405
modhoster.com 54 407
wankflix.com 54 409
likeshuo.com 54 411
goldsexvideos.com 54 414
managerzone.com 54 415
dianpingoa.com 54 417
changhong.com 54 419
chill-tab.com 54 421
bpm-power.com 54 423
jakubmarian.com 54 424